• En Argentina
  • Lista de países
  • Para 7 días
  • Temperatura del agua
  • El tiempo en el mapa
  • Informadores
  • user-avatar
    Iniciar sesión

    Tiempo cada hora Buenos Aires

    Hoy, 26 Enero, Domingo

    Tiempo Temperatura Precipitaciones Viento Presión Humedad
    00:00 +29°C° 0 mm 3 mps 753 mmHg 48%
    01:00 +28°C° 0 mm 4 mps 753 mmHg 50%
    02:00 +27°C° 0 mm 5 mps 753 mmHg 53%
    03:00 +27°C° 0 mm 5 mps 753 mmHg 54%
    04:00 +26°C° 0 mm 4 mps 753 mmHg 55%
    05:00 +26°C° 0 mm 4 mps 753 mmHg 56%
    06:00 +27°C° 0 mm 4 mps 754 mmHg 53%
    07:00 +28°C° 0 mm 3 mps 754 mmHg 50%
    08:00 +28°C° 0 mm 2 mps 754 mmHg 48%
    09:00 +30°C° 0 mm 2 mps 754 mmHg 40%
    10:00 +32°C° 0 mm 2 mps 754 mmHg 32%
    11:00 +35°C° 0 mm 2 mps 754 mmHg 24%
    12:00 +36°C° 0 mm 2 mps 754 mmHg 21%
    13:00 +37°C° 0 mm 2 mps 754 mmHg 18%
    14:00 +38°C° 0 mm 2 mps 753 mmHg 15%
    15:00 +39°C° 0 mm 3 mps 753 mmHg 15%
    16:00 +39°C° 0 mm 3 mps 753 mmHg 14%
    17:00 +40°C° 0 mm 4 mps 752 mmHg 14%
    18:00 +37°C° 0 mm 4 mps 753 mmHg 24%
    19:00 +34°C° 0 mm 4 mps 753 mmHg 34%
    20:00 +32°C° 0 mm 4 mps 754 mmHg 43%
    21:00 +29°C° 0 mm 5 mps 754 mmHg 41%
    22:00 +28°C° 0 mm 7 mps 755 mmHg 39%
    23:00 +27°C° 0 mm 8 mps 756 mmHg 37%

    Mañana, 27 Enero, Lunes

    Tiempo Temperatura Precipitaciones Viento Presión Humedad
    00:00 +26°C° 0 mm 8 mps 756 mmHg 43%
    01:00 +23°C° 0 mm 8 mps 757 mmHg 50%
    02:00 +22°C° 0 mm 7 mps 757 mmHg 57%
    03:00 +21°C° 0 mm 7 mps 758 mmHg 58%
    04:00 +20°C° 0 mm 7 mps 758 mmHg 60%
    05:00 +19°C° 0 mm 6 mps 759 mmHg 62%
    06:00 +20°C° 0 mm 6 mps 759 mmHg 58%
    07:00 +20°C° 0 mm 6 mps 760 mmHg 54%
    08:00 +21°C° 0 mm 5 mps 760 mmHg 49%
    09:00 +23°C° 0 mm 5 mps 760 mmHg 42%
    10:00 +26°C° 0 mm 5 mps 760 mmHg 34%
    11:00 +28°C° 0 mm 4 mps 760 mmHg 26%
    12:00 +29°C° 0 mm 5 mps 760 mmHg 25%
    13:00 +30°C° 0 mm 5 mps 760 mmHg 24%
    14:00 +32°C° 0 mm 6 mps 759 mmHg 23%
    15:00 +29°C° 0 mm 6 mps 759 mmHg 30%
    16:00 +28°C° 0 mm 7 mps 759 mmHg 37%
    17:00 +26°C° 0 mm 7 mps 759 mmHg 44%
    18:00 +24°C° 0 mm 7 mps 759 mmHg 47%
    19:00 +24°C° 0 mm 7 mps 759 mmHg 50%
    20:00 +23°C° 0 mm 7 mps 759 mmHg 52%
    21:00 +22°C° 0 mm 7 mps 760 mmHg 54%
    22:00 +22°C° 0 mm 7 mps 760 mmHg 56%
    23:00 +22°C° 0 mm 6 mps 760 mmHg 57%

    Pasado mañana, 28 Enero, Martes

    Tiempo Temperatura Precipitaciones Viento Presión Humedad
    00:00 +21°C° 0 mm 6 mps 760 mmHg 58%
    01:00 +21°C° 0 mm 6 mps 760 mmHg 59%
    02:00 +21°C° 0 mm 6 mps 759 mmHg 60%
    03:00 +20°C° 0 mm 6 mps 759 mmHg 59%
    04:00 +20°C° 0 mm 6 mps 759 mmHg 59%
    05:00 +20°C° 0 mm 6 mps 759 mmHg 58%
    06:00 +21°C° 0 mm 6 mps 759 mmHg 54%
    07:00 +22°C° 0 mm 6 mps 759 mmHg 50%
    08:00 +23°C° 0 mm 6 mps 758 mmHg 47%
    09:00 +26°C° 0 mm 5 mps 758 mmHg 40%
    10:00 +28°C° 0 mm 4 mps 757 mmHg 33%
    11:00 +30°C° 0 mm 3 mps 756 mmHg 26%
    12:00 +33°C° 0 mm 3 mps 756 mmHg 22%
    13:00 +34°C° 0 mm 3 mps 755 mmHg 19%
    14:00 +36°C° 0 mm 4 mps 754 mmHg 16%
    15:00 +36°C° 0 mm 4 mps 754 mmHg 16%
    16:00 +36°C° 0 mm 3 mps 753 mmHg 17%
    17:00 +36°C° 0 mm 3 mps 752 mmHg 18%
    18:00 +34°C° 0 mm 4 mps 752 mmHg 25%
    19:00 +33°C° 0 mm 5 mps 752 mmHg 32%
    20:00 +30°C° 0 mm 5 mps 752 mmHg 39%
    21:00 +30°C° 0 mm 5 mps 752 mmHg 36%
    22:00 +30°C° 0 mm 6 mps 752 mmHg 34%
    23:00 +30°C° 0 mm 6 mps 752 mmHg 31%

    29 Enero, Miércoles

    Tiempo Temperatura Precipitaciones Viento Presión Humedad
    00:00 +30°C° 0 mm 5 mps 752 mmHg 32%
    01:00 +29°C° 0 mm 5 mps 751 mmHg 33%
    02:00 +29°C° 0 mm 5 mps 751 mmHg 34%
    03:00 +28°C° 0.1 mm 5 mps 752 mmHg 39%
    04:00 +27°C° 0.1 mm 5 mps 752 mmHg 45%
    05:00 +26°C° 0.1 mm 5 mps 752 mmHg 50%
    06:00 +26°C° 0.2 mm 5 mps 753 mmHg 55%
    07:00 +26°C° 0.2 mm 6 mps 753 mmHg 60%
    08:00 +26°C° 0.2 mm 7 mps 753 mmHg 65%
    09:00 +26°C° 2.1 mm 5 mps 753 mmHg 67%
    10:00 +25°C° 2.1 mm 4 mps 753 mmHg 68%
    11:00 +25°C° 2.1 mm 2 mps 753 mmHg 70%
    12:00 +27°C° 0.4 mm 3 mps 753 mmHg 63%
    13:00 +28°C° 0.4 mm 4 mps 752 mmHg 56%
    14:00 +29°C° 0.4 mm 4 mps 752 mmHg 49%
    15:00 +30°C° 0.1 mm 4 mps 752 mmHg 43%
    16:00 +32°C° 0.1 mm 4 mps 751 mmHg 36%
    17:00 +33°C° 0.1 mm 4 mps 751 mmHg 29%
    18:00 +30°C° 0 mm 4 mps 752 mmHg 34%
    19:00 +29°C° 0 mm 5 mps 753 mmHg 39%
    20:00 +27°C° 0 mm 5 mps 753 mmHg 44%
    21:00 +26°C° 0 mm 6 mps 754 mmHg 51%
    22:00 +23°C° 0 mm 7 mps 755 mmHg 59%
    23:00 +21°C° 0 mm 7 mps 756 mmHg 67%

    30 Enero, Jueves

    Tiempo Temperatura Precipitaciones Viento Presión Humedad
    00:00 +21°C° 0 mm 7 mps 756 mmHg 67%
    01:00 +20°C° 0 mm 7 mps 756 mmHg 67%
    02:00 +18°C° 0 mm 7 mps 756 mmHg 67%
    03:00 +18°C° 0 mm 7 mps 757 mmHg 66%
    04:00 +19°C° 0 mm 6 mps 757 mmHg 66%
    05:00 +19°C° 0 mm 6 mps 758 mmHg 65%
    06:00 +19°C° 0 mm 5 mps 758 mmHg 62%
    07:00 +20°C° 0 mm 5 mps 758 mmHg 59%
    08:00 +20°C° 0 mm 5 mps 759 mmHg 56%
    09:00 +22°C° 0 mm 4 mps 759 mmHg 49%
    10:00 +25°C° 0 mm 3 mps 759 mmHg 42%
    11:00 +26°C° 0 mm 3 mps 759 mmHg 35%
    12:00 +28°C° 0 mm 3 mps 759 mmHg 30%
    13:00 +29°C° 0 mm 3 mps 758 mmHg 25%
    14:00 +30°C° 0 mm 4 mps 758 mmHg 20%
    15:00 +29°C° 0 mm 5 mps 757 mmHg 27%
    16:00 +28°C° 0 mm 5 mps 757 mmHg 34%
    17:00 +27°C° 0 mm 6 mps 757 mmHg 40%
    18:00 +26°C° 0 mm 6 mps 757 mmHg 44%
    19:00 +24°C° 0 mm 6 mps 757 mmHg 48%
    20:00 +23°C° 0 mm 7 mps 758 mmHg 52%
    21:00 +22°C° 0 mm 6 mps 758 mmHg 53%
    22:00 +22°C° 0 mm 6 mps 759 mmHg 55%
    23:00 +22°C° 0 mm 6 mps 759 mmHg 57%

    31 Enero, Viernes

    Tiempo Temperatura Precipitaciones Viento Presión Humedad
    00:00 +21°C° 0 mm 5 mps 759 mmHg 57%
    01:00 +21°C° 0 mm 5 mps 759 mmHg 57%
    02:00 +21°C° 0 mm 4 mps 758 mmHg 57%
    03:00 +20°C° 0 mm 4 mps 758 mmHg 58%
    04:00 +20°C° 0 mm 4 mps 758 mmHg 59%
    05:00 +20°C° 0 mm 3 mps 758 mmHg 60%
    06:00 +21°C° 0 mm 4 mps 759 mmHg 55%
    07:00 +22°C° 0 mm 4 mps 759 mmHg 51%
    08:00 +23°C° 0 mm 4 mps 759 mmHg 46%
    09:00 +26°C° 0 mm 3 mps 759 mmHg 39%
    10:00 +28°C° 0 mm 3 mps 759 mmHg 33%
    11:00 +31°C° 0 mm 2 mps 759 mmHg 26%
    12:00 +32°C° 0 mm 2 mps 758 mmHg 22%
    13:00 +35°C° 0 mm 2 mps 757 mmHg 19%
    14:00 +36°C° 0 mm 2 mps 757 mmHg 15%
    15:00 +36°C° 0 mm 3 mps 757 mmHg 16%
    16:00 +35°C° 0 mm 3 mps 756 mmHg 17%
    17:00 +34°C° 0 mm 3 mps 756 mmHg 18%
    18:00 +33°C° 0 mm 4 mps 756 mmHg 21%
    19:00 +32°C° 0 mm 4 mps 756 mmHg 24%
    20:00 +29°C° 0 mm 4 mps 756 mmHg 26%
    21:00 +29°C° 0 mm 5 mps 757 mmHg 28%
    22:00 +28°C° 0 mm 5 mps 757 mmHg 30%
    23:00 +28°C° 0 mm 6 mps 757 mmHg 32%
    Mostrar más